CZ-6A DEB, 54898

Orbit data source: Space-Track

CZ-6A DEB, 54898 is space debris in SSO originally from a launch on Fri, 11 Nov 2022 UTC launched from the Taiyaun Space Center, China (TSC). Debris objects in space refer to the collection of defunct objects orbiting the Earth. Examples of debris include non-operational satellites, rocket bodies, and fragments generated from explosions, collisions, or faulty payload assembly.

Loading next visibility...
Identifier
54898, 2022-151QK
Orbit
SSO
Country
Flag of CNCN / PRC
Related business
Manufacturer
SAST
Mission
Spacecraft
Bus & Motor
Unknown
Mass
Unknown
Launch date (UTC)
2022-11-11 (4 years ago)
Launch vehicle
Unknown
Launch site
Taiyaun Space Center, China (TSC)
Object type
Payload
Rocket body
Debris
Shape & HBR
Unknown shape, 0.1 m
Radar Cross Section
Small (<0.1 m²)

Expand to show TLE details & history
Last TLE update: 13 hours ago

TLE from 13 hours ago
0 CZ-6A DEB
1 54898U 22151QK  26236.40004680  .00000614  00000-0  38493-3 0  9997
2 54898  98.8566 223.6177 0079472 196.2701 163.5915 14.06696355191232
Epoch: 2026-08-24T09:36Z
TLE epoch observation values (Epoch: 2026-08-24T09:36:04.043Z)
Latitude
0.00005°
Longitude
106.91855°
Altitude
928.899 km
Speed
7.359 km/s
True Right ascension
14h 54m 28s
True Declination
0° 00' 00"
Sunlit
Object was in daylight at epoch
Visualization orbit readout
Latitude
Unknown
Longitude
Unknown
Altitude
Unknown
Speed
Unknown
Apparent Right ascension
Unknown
Apparent Declination
Unknown
Sunlit
N/A
Visualization observer readout
Local Sidereal Time
13:46:41
Azimuth
Unknown
Elevation
Unknown
Doppler factor
Unknown
Orbital elements
Apogee altitude
925.468 km
Perigee altitude
810.297 km
Semi-major axis
7,246.019 km
Eccentricity
0.00795
Inclination
98.8566°
RAAN
223.6177°
Arg. of periapsis
196.2701°
True anomaly
163.84632°
Mean anomaly
163.5915°
Eccentric anomaly
163.71915°
Mean motion
3.51879 °/min
Orbital period
102.31 mins
BSTAR
0.00038493
Loading maneuver chart data...
Computing Atmospheric mass density...
Loading historical data...
Loading historical data...
Loading historical data...
Loading historical data...
Loading historical data...
Loading historical data...
Loading historical data...

Documentation

Showing up to 5 results
|